Time,TemperatureF,DewpointF,PressureIn,WindDirection,WindDirectionDegrees,WindSpeedMPH,WindSpeedGustMPH,Humidity,HourlyPrecipIn,Conditions,Clouds,dailyrainin,SoftwareType,DateUTC
2013-07-16 00:01:00,69.6,59.7,29.14,North,0,0.0,0.0,71,0.00,,,0.00,meteohub,2013-07-16 04:01:00,
2013-07-16 00:02:00,69.6,59.4,29.14,North,0,0.0,0.0,70,0.00,,,0.00,meteohub,2013-07-16 04:02:00,
2013-07-16 00:03:00,69.6,59.4,29.14,North,0,0.0,0.0,70,0.00,,,0.00,meteohub,2013-07-16 04:03:00,
2013-07-16 00:08:00,69.4,59.2,29.14,North,0,0.0,0.0,70,0.00,,,0.00,meteohub,2013-07-16 04:08:00,
2013-07-16 00:13:00,69.6,59.4,29.14,North,0,0.0,0.0,70,0.00,,,0.00,meteohub,2013-07-16 04:13:00,
2013-07-16 00:18:00,69.6,59.0,29.14,North,0,0.0,0.0,69,0.00,,,0.00,meteohub,2013-07-16 04:18:00,
2013-07-16 00:23:00,69.6,59.0,29.14,North,0,0.0,0.0,69,0.00,,,0.00,meteohub,2013-07-16 04:23:00,
2013-07-16 00:28:00,69.4,58.8,29.14,North,0,0.0,0.0,69,0.00,,,0.00,meteohub,2013-07-16 04:28:00,
2013-07-16 00:33:00,69.4,59.2,29.14,North,0,0.0,0.0,70,0.00,,,0.00,meteohub,2013-07-16 04:33:00,
2013-07-16 00:38:00,69.3,59.0,29.14,North,0,0.0,0.0,70,0.00,,,0.00,meteohub,2013-07-16 04:38:00,
2013-07-16 00:43:00,69.3,59.0,29.14,North,0,0.0,0.0,70,0.00,,,0.00,meteohub,2013-07-16 04:43:00,
2013-07-16 00:48:00,69.1,58.5,29.14,North,0,0.0,0.0,69,0.00,,,0.00,meteohub,2013-07-16 04:48:00,
2013-07-16 00:53:00,69.1,58.5,29.14,North,0,0.0,0.0,69,0.00,,,0.00,meteohub,2013-07-16 04:53:00,
2013-07-16 00:58:00,69.1,58.5,29.14,North,0,0.0,0.0,69,0.00,,,0.00,meteohub,2013-07-16 04:58:00,
2013-07-16 01:03:00,69.1,58.1,29.14,North,0,0.0,0.0,68,0.00,,,0.00,meteohub,2013-07-16 05:03:00,
2013-07-16 01:08:00,69.1,58.1,29.14,North,0,0.0,0.0,68,0.00,,,0.00,meteohub,2013-07-16 05:08:00,
2013-07-16 01:13:00,68.9,57.9,29.14,North,0,0.0,0.0,68,0.00,,,0.00,meteohub,2013-07-16 05:13:00,
2013-07-16 01:18:00,68.9,57.9,29.14,North,0,0.0,0.0,68,0.00,,,0.00,meteohub,2013-07-16 05:18:00,
2013-07-16 01:23:00,68.7,57.7,29.14,North,0,0.0,0.0,68,0.00,,,0.00,meteohub,2013-07-16 05:23:00,
2013-07-16 01:28:00,68.4,57.4,29.14,North,0,0.0,0.0,68,0.00,,,0.00,meteohub,2013-07-16 05:28:00,
2013-07-16 01:34:00,68.2,57.2,29.14,North,0,0.0,0.0,68,0.00,,,0.00,meteohub,2013-07-16 05:34:00,
2013-07-16 01:39:00,67.8,56.8,29.14,North,0,0.0,0.0,68,0.00,,,0.00,meteohub,2013-07-16 05:39:00,
2013-07-16 01:44:00,67.8,56.5,29.14,North,0,0.0,0.0,67,0.00,,,0.00,meteohub,2013-07-16 05:44:00,
2013-07-16 01:49:00,67.6,56.3,29.14,North,0,0.0,0.0,67,0.00,,,0.00,meteohub,2013-07-16 05:49:00,
2013-07-16 01:54:00,67.5,56.1,29.14,North,0,0.0,0.0,67,0.00,,,0.00,meteohub,2013-07-16 05:54:00,
2013-07-16 01:59:00,67.3,55.6,29.14,North,0,0.0,0.0,66,0.00,,,0.00,meteohub,2013-07-16 05:59:00,
2013-07-16 02:04:00,67.1,55.4,29.14,North,0,0.0,0.0,66,0.00,,,0.00,meteohub,2013-07-16 06:04:00,
2013-07-16 02:09:00,67.1,55.4,29.14,North,0,0.0,0.0,66,0.00,,,0.00,meteohub,2013-07-16 06:09:00,
2013-07-16 02:14:00,66.9,54.9,29.14,North,0,0.0,0.0,65,0.00,,,0.00,meteohub,2013-07-16 06:14:00,
2013-07-16 02:19:00,66.9,54.9,29.14,North,0,0.0,0.0,65,0.00,,,0.00,meteohub,2013-07-16 06:19:00,
2013-07-16 02:24:00,66.9,54.3,29.14,North,0,0.0,0.0,64,0.00,,,0.00,meteohub,2013-07-16 06:24:00,
2013-07-16 02:29:00,66.7,54.1,29.14,North,0,0.0,0.0,64,0.00,,,0.00,meteohub,2013-07-16 06:29:00,
2013-07-16 02:34:00,66.7,54.1,29.14,North,0,0.0,0.0,64,0.00,,,0.00,meteohub,2013-07-16 06:34:00,
2013-07-16 02:39:00,66.6,54.0,29.14,North,0,0.0,0.0,64,0.00,,,0.00,meteohub,2013-07-16 06:39:00,
2013-07-16 02:44:00,66.4,53.4,29.14,North,0,0.0,0.0,63,0.00,,,0.00,meteohub,2013-07-16 06:44:00,
2013-07-16 02:49:00,66.4,53.4,29.14,North,0,0.0,0.0,63,0.00,,,0.00,meteohub,2013-07-16 06:49:00,
2013-07-16 02:54:00,66.2,53.2,29.14,North,0,0.0,0.0,63,0.00,,,0.00,meteohub,2013-07-16 06:54:00,
2013-07-16 02:59:00,66.2,52.9,29.14,North,0,0.0,0.0,62,0.00,,,0.00,meteohub,2013-07-16 06:59:00,
2013-07-16 03:04:00,66.0,52.7,29.14,North,0,0.0,0.0,62,0.00,,,0.00,meteohub,2013-07-16 07:04:00,
2013-07-16 03:09:00,66.0,52.2,29.14,North,0,0.0,0.0,61,0.00,,,0.00,meteohub,2013-07-16 07:09:00,
2013-07-16 03:14:00,66.0,52.2,29.14,North,0,0.0,0.0,61,0.00,,,0.00,meteohub,2013-07-16 07:14:00,
2013-07-16 03:19:00,66.0,52.2,29.14,North,0,0.0,0.0,61,0.00,,,0.00,meteohub,2013-07-16 07:19:00,
2013-07-16 03:24:00,66.0,52.2,29.14,North,0,0.0,0.0,61,0.00,,,0.00,meteohub,2013-07-16 07:24:00,
2013-07-16 03:29:00,66.0,52.2,29.14,North,0,0.0,0.0,61,0.00,,,0.00,meteohub,2013-07-16 07:29:00,
2013-07-16 03:34:00,65.8,51.6,29.14,North,0,0.0,0.0,60,0.00,,,0.00,meteohub,2013-07-16 07:34:00,
2013-07-16 03:39:00,66.0,51.8,29.14,North,0,0.0,0.0,60,0.00,,,0.00,meteohub,2013-07-16 07:39:00,
2013-07-16 03:44:00,65.8,51.6,29.14,North,0,0.0,0.0,60,0.00,,,0.00,meteohub,2013-07-16 07:44:00,
2013-07-16 03:49:00,65.8,51.1,29.14,North,0,0.0,0.0,59,0.00,,,0.00,meteohub,2013-07-16 07:49:00,
2013-07-16 03:54:00,65.7,51.4,29.14,North,0,0.0,0.0,60,0.00,,,0.00,meteohub,2013-07-16 07:54:00,
2013-07-16 03:59:00,65.5,51.3,29.14,North,0,0.0,0.0,60,0.00,,,0.00,meteohub,2013-07-16 07:59:00,
2013-07-16 04:04:00,65.5,50.7,29.14,North,0,0.0,0.0,59,0.00,,,0.00,meteohub,2013-07-16 08:04:00,
2013-07-16 04:09:00,65.7,50.5,29.14,North,0,0.0,0.0,58,0.00,,,0.00,meteohub,2013-07-16 08:09:00,
2013-07-16 04:14:00,65.8,50.7,29.14,North,0,0.0,0.0,58,0.00,,,0.00,meteohub,2013-07-16 08:14:00,
2013-07-16 04:19:00,65.8,50.7,29.14,North,0,0.0,0.0,58,0.00,,,0.00,meteohub,2013-07-16 08:19:00,
2013-07-16 04:24:00,65.8,50.7,29.14,North,0,0.0,0.0,58,0.00,,,0.00,meteohub,2013-07-16 08:24:00,
2013-07-16 04:29:00,65.7,50.5,29.14,North,0,0.0,0.0,58,0.00,,,0.00,meteohub,2013-07-16 08:29:00,
2013-07-16 04:34:00,65.7,50.5,29.14,North,0,0.0,0.0,58,0.00,,,0.00,meteohub,2013-07-16 08:34:00,
2013-07-16 04:39:00,65.3,50.2,29.14,North,0,0.0,0.0,58,0.00,,,0.00,meteohub,2013-07-16 08:39:00,
2013-07-16 04:44:00,65.3,50.2,29.14,North,0,0.0,0.0,58,0.00,,,0.00,meteohub,2013-07-16 08:44:00,
2013-07-16 04:49:00,65.3,50.2,29.14,North,0,0.0,0.0,58,0.00,,,0.00,meteohub,2013-07-16 08:49:00,
2013-07-16 04:54:00,65.3,49.6,29.14,North,0,0.0,0.0,57,0.00,,,0.00,meteohub,2013-07-16 08:54:00,
2013-07-16 04:59:00,65.3,49.6,29.14,North,0,0.0,0.0,57,0.00,,,0.00,meteohub,2013-07-16 08:59:00,
2013-07-16 05:04:00,65.3,49.6,29.14,North,0,0.0,0.0,57,0.00,,,0.00,meteohub,2013-07-16 09:04:00,
2013-07-16 05:09:00,65.3,49.3,29.14,North,0,0.0,0.0,56,0.00,,,0.00,meteohub,2013-07-16 09:09:00,
2013-07-16 05:14:00,65.3,49.3,29.14,North,0,0.0,0.0,56,0.00,,,0.00,meteohub,2013-07-16 09:14:00,
2013-07-16 05:19:00,65.3,49.3,29.14,North,0,0.0,0.0,56,0.00,,,0.00,meteohub,2013-07-16 09:19:00,
2013-07-16 05:24:00,65.3,49.3,29.14,North,0,0.0,0.0,56,0.00,,,0.00,meteohub,2013-07-16 09:24:00,
2013-07-16 05:29:00,65.3,49.3,29.14,North,0,0.0,0.0,56,0.00,,,0.00,meteohub,2013-07-16 09:29:00,
2013-07-16 05:34:00,65.3,49.3,29.14,North,0,0.0,0.0,56,0.00,,,0.00,meteohub,2013-07-16 09:34:00,
2013-07-16 05:39:00,65.3,48.7,29.14,North,0,0.0,0.0,55,0.00,,,0.00,meteohub,2013-07-16 09:39:00,
2013-07-16 05:44:00,65.3,48.7,29.14,North,0,0.0,0.0,55,0.00,,,0.00,meteohub,2013-07-16 09:44:00,
2013-07-16 05:49:00,65.3,48.7,29.14,North,0,0.0,0.0,55,0.00,,,0.00,meteohub,2013-07-16 09:49:00,
2013-07-16 05:54:00,65.1,48.6,29.14,North,0,0.0,0.0,55,0.00,,,0.00,meteohub,2013-07-16 09:54:00,
2013-07-16 06:00:00,65.3,48.7,29.14,North,0,0.0,0.0,55,0.00,,,0.00,meteohub,2013-07-16 10:00:00,
2013-07-16 06:05:00,65.1,48.6,29.14,North,0,0.0,0.0,55,0.00,,,0.00,meteohub,2013-07-16 10:05:00,
2013-07-16 06:10:00,64.9,48.4,29.14,North,0,0.0,0.0,55,0.00,,,0.00,meteohub,2013-07-16 10:10:00,
2013-07-16 06:15:00,64.9,48.4,29.14,North,0,0.0,0.0,55,0.00,,,0.00,meteohub,2013-07-16 10:15:00,
2013-07-16 06:20:00,64.8,48.2,29.14,North,0,0.0,0.0,55,0.00,,,0.00,meteohub,2013-07-16 10:20:00,
2013-07-16 06:25:00,64.8,48.2,29.14,North,0,0.0,0.0,55,0.00,,,0.00,meteohub,2013-07-16 10:25:00,
2013-07-16 06:30:00,64.6,48.0,29.14,North,0,0.0,0.0,55,0.00,,,0.00,meteohub,2013-07-16 10:30:00,
2013-07-16 06:35:00,64.8,47.7,29.14,North,0,0.0,0.0,54,0.00,,,0.00,meteohub,2013-07-16 10:35:00,
2013-07-16 06:40:00,64.6,47.5,29.14,North,0,0.0,0.0,54,0.00,,,0.00,meteohub,2013-07-16 10:40:00,
2013-07-16 06:45:00,64.6,47.5,29.14,North,0,0.0,0.0,54,0.00,,,0.00,meteohub,2013-07-16 10:45:00,
2013-07-16 06:50:00,64.8,47.7,29.14,North,0,0.0,0.0,54,0.00,,,0.00,meteohub,2013-07-16 10:50:00,
2013-07-16 06:55:00,65.1,47.5,29.14,North,0,0.0,0.0,53,0.00,,,0.00,meteohub,2013-07-16 10:55:00,
2013-07-16 07:00:00,65.3,47.7,29.14,North,0,0.0,0.0,53,0.00,,,0.00,meteohub,2013-07-16 11:00:00,
2013-07-16 07:05:00,65.5,47.8,29.14,North,0,0.0,0.0,53,0.00,,,0.00,meteohub,2013-07-16 11:05:00,
2013-07-16 07:10:00,65.7,48.0,29.14,North,0,0.0,0.0,53,0.00,,,0.00,meteohub,2013-07-16 11:10:00,
2013-07-16 07:15:00,65.8,48.2,29.14,North,0,0.0,0.0,53,0.00,,,0.00,meteohub,2013-07-16 11:15:00,
2013-07-16 07:20:00,66.0,47.8,29.14,North,0,0.0,0.0,52,0.00,,,0.00,meteohub,2013-07-16 11:20:00,
2013-07-16 07:25:00,66.4,48.2,29.14,North,0,0.0,0.0,52,0.00,,,0.00,meteohub,2013-07-16 11:25:00,
2013-07-16 07:30:00,66.7,48.6,29.14,North,0,0.0,0.0,52,0.00,,,0.00,meteohub,2013-07-16 11:30:00,
2013-07-16 07:35:00,66.9,48.7,29.14,North,0,0.0,0.0,52,0.00,,,0.00,meteohub,2013-07-16 11:35:00,
2013-07-16 07:40:00,67.5,48.7,29.14,North,0,0.0,0.0,51,0.00,,,0.00,meteohub,2013-07-16 11:40:00,
2013-07-16 07:45:00,67.6,48.9,29.14,North,0,0.0,0.0,51,0.00,,,0.00,meteohub,2013-07-16 11:45:00,
2013-07-16 07:50:00,68.0,49.3,29.14,North,0,0.0,0.0,51,0.00,,,0.00,meteohub,2013-07-16 11:50:00,
2013-07-16 07:55:00,68.5,49.6,29.14,North,0,0.0,0.0,51,0.00,,,0.00,meteohub,2013-07-16 11:55:00,
2013-07-16 08:00:00,68.9,50.0,29.14,North,0,0.0,0.0,51,0.00,,,0.00,meteohub,2013-07-16 12:00:00,
2013-07-16 08:05:00,69.3,50.4,29.14,North,0,0.0,0.0,51,0.00,,,0.00,meteohub,2013-07-16 12:05:00,
2013-07-16 08:10:00,69.8,50.4,29.14,North,0,0.0,0.0,50,0.00,,,0.00,meteohub,2013-07-16 12:10:00,
2013-07-16 08:15:00,70.3,50.9,29.14,North,0,0.0,0.0,50,0.00,,,0.00,meteohub,2013-07-16 12:15:00,
2013-07-16 08:20:00,70.9,51.3,29.14,North,0,0.0,0.0,50,0.00,,,0.00,meteohub,2013-07-16 12:20:00,
2013-07-16 08:25:00,71.2,51.6,29.14,North,0,0.0,0.0,50,0.00,,,0.00,meteohub,2013-07-16 12:25:00,
2013-07-16 08:30:00,71.8,51.6,29.14,North,0,0.0,0.0,49,0.00,,,0.00,meteohub,2013-07-16 12:30:00,
2013-07-16 08:35:00,72.3,52.2,29.14,North,0,0.0,0.0,49,0.00,,,0.00,meteohub,2013-07-16 12:35:00,
2013-07-16 08:40:00,72.7,52.3,29.14,North,0,0.0,0.0,49,0.00,,,0.00,meteohub,2013-07-16 12:40:00,
2013-07-16 08:45:00,73.2,52.9,29.14,North,0,0.0,0.0,49,0.00,,,0.00,meteohub,2013-07-16 12:45:00,
2013-07-16 08:50:00,73.8,53.4,29.14,North,0,0.0,0.0,49,0.00,,,0.00,meteohub,2013-07-16 12:50:00,
2013-07-16 08:55:00,74.3,54.5,29.14,North,0,0.0,0.0,50,0.00,,,0.00,meteohub,2013-07-16 12:55:00,
2013-07-16 09:00:00,74.8,55.0,29.14,North,0,0.0,0.0,50,0.00,,,0.00,meteohub,2013-07-16 13:00:00,
2013-07-16 09:05:00,75.4,55.4,29.14,North,0,0.0,0.0,50,0.00,,,0.00,meteohub,2013-07-16 13:05:00,
2013-07-16 09:10:00,75.9,56.5,29.14,North,0,0.0,0.0,51,0.00,,,0.00,meteohub,2013-07-16 13:10:00,
2013-07-16 09:12:00,75.9,56.5,29.14,North,0,0.0,0.0,51,0.00,,,0.00,meteohub,2013-07-16 13:12:00,
2013-07-16 09:17:00,76.3,57.4,29.14,North,0,0.0,0.0,52,0.00,,,0.00,meteohub,2013-07-16 13:17:00,
2013-07-16 09:22:00,77.0,58.1,29.14,North,0,0.0,0.0,52,0.00,,,0.00,meteohub,2013-07-16 13:22:00,
2013-07-16 09:27:00,77.7,58.6,29.14,North,0,0.0,0.0,52,0.00,,,0.00,meteohub,2013-07-16 13:27:00,
2013-07-16 09:32:00,78.4,59.9,29.14,North,0,0.0,0.0,53,0.00,,,0.00,meteohub,2013-07-16 13:32:00,
2013-07-16 09:37:00,78.6,60.6,29.14,North,0,0.0,0.0,54,0.00,,,0.00,meteohub,2013-07-16 13:37:00,
2013-07-16 09:42:00,79.0,61.5,29.14,North,0,0.0,0.0,55,0.00,,,0.00,meteohub,2013-07-16 13:42:00,
2013-07-16 09:47:00,79.3,62.2,29.14,North,0,0.0,0.0,56,0.00,,,0.00,meteohub,2013-07-16 13:47:00,
2013-07-16 09:52:00,79.7,62.6,29.14,North,0,0.0,0.0,56,0.00,,,0.00,meteohub,2013-07-16 13:52:00,
2013-07-16 09:57:00,80.1,63.0,29.14,North,0,0.0,0.0,56,0.00,,,0.00,meteohub,2013-07-16 13:57:00,
2013-07-16 10:02:00,80.4,63.9,29.14,North,0,0.0,0.0,57,0.00,,,0.00,meteohub,2013-07-16 14:02:00,
2013-07-16 10:07:00,81.0,64.8,29.14,North,0,0.0,0.0,58,0.00,,,0.00,meteohub,2013-07-16 14:07:00,
2013-07-16 10:12:00,81.5,65.3,29.14,North,0,0.0,0.0,58,0.00,,,0.00,meteohub,2013-07-16 14:12:00,
2013-07-16 10:17:00,82.2,66.9,29.14,North,0,0.0,0.0,60,0.00,,,0.00,meteohub,2013-07-16 14:17:00,
2013-07-16 10:22:00,82.8,66.9,29.14,North,0,0.0,0.0,59,0.00,,,0.00,meteohub,2013-07-16 14:22:00,
2013-07-16 10:27:00,83.3,68.0,29.14,North,0,0.0,0.0,60,0.00,,,0.00,meteohub,2013-07-16 14:27:00,
2013-07-16 10:33:00,83.7,68.7,29.14,North,0,0.0,0.0,61,0.00,,,0.00,meteohub,2013-07-16 14:33:00,
2013-07-16 10:38:00,84.0,69.6,29.14,North,0,0.0,0.0,62,0.00,,,0.00,meteohub,2013-07-16 14:38:00,
2013-07-16 10:43:00,84.2,69.8,29.14,North,0,0.0,0.0,62,0.00,,,0.00,meteohub,2013-07-16 14:43:00,
2013-07-16 10:48:00,84.4,70.0,29.14,North,0,0.0,0.0,62,0.00,,,0.00,meteohub,2013-07-16 14:48:00,
2013-07-16 10:53:00,84.6,70.2,29.14,North,0,0.0,0.0,62,0.00,,,0.00,meteohub,2013-07-16 14:53:00,
2013-07-16 10:58:00,84.9,70.9,29.14,North,0,0.0,0.0,63,0.00,,,0.00,meteohub,2013-07-16 14:58:00,
2013-07-16 11:03:00,85.5,71.4,29.14,North,0,0.0,0.0,63,0.00,,,0.00,meteohub,2013-07-16 15:03:00,
2013-07-16 11:08:00,85.8,72.1,29.14,North,0,0.0,0.0,64,0.00,,,0.00,meteohub,2013-07-16 15:08:00,
2013-07-16 11:13:00,86.0,72.3,29.14,North,0,0.0,0.0,64,0.00,,,0.00,meteohub,2013-07-16 15:13:00,
2013-07-16 11:18:00,86.2,72.1,29.14,North,0,0.0,0.0,63,0.00,,,0.00,meteohub,2013-07-16 15:18:00,
2013-07-16 11:23:00,86.4,72.7,29.14,North,0,0.0,0.0,64,0.00,,,0.00,meteohub,2013-07-16 15:23:00,
2013-07-16 11:28:00,86.7,72.1,29.14,North,0,0.0,0.0,62,0.00,,,0.00,meteohub,2013-07-16 15:28:00,
2013-07-16 11:33:00,86.9,72.3,29.14,North,0,0.0,0.0,62,0.00,,,0.00,meteohub,2013-07-16 15:33:00,
2013-07-16 11:38:00,87.1,72.0,29.14,North,0,0.0,0.0,61,0.00,,,0.00,meteohub,2013-07-16 15:38:00,
2013-07-16 11:43:00,87.1,72.0,29.14,North,0,0.0,0.0,61,0.00,,,0.00,meteohub,2013-07-16 15:43:00,
2013-07-16 11:48:00,87.1,72.0,29.14,North,0,0.0,0.0,61,0.00,,,0.00,meteohub,2013-07-16 15:48:00,
2013-07-16 11:53:00,87.3,72.1,29.14,North,0,0.0,0.0,61,0.00,,,0.00,meteohub,2013-07-16 15:53:00,
2013-07-16 11:58:00,87.4,71.8,29.14,North,0,0.0,0.0,60,0.00,,,0.00,meteohub,2013-07-16 15:58:00,
2013-07-16 12:03:00,87.8,72.1,29.14,North,0,0.0,0.0,60,0.00,,,0.00,meteohub,2013-07-16 16:03:00,
2013-07-16 12:08:00,88.0,71.8,29.14,North,0,0.0,0.0,59,0.00,,,0.00,meteohub,2013-07-16 16:08:00,
2013-07-16 12:14:00,87.8,72.1,29.14,North,0,0.0,0.0,60,0.00,,,0.00,meteohub,2013-07-16 16:14:00,
2013-07-16 12:19:00,88.2,72.5,29.14,North,0,0.0,0.0,60,0.00,,,0.00,meteohub,2013-07-16 16:19:00,
2013-07-16 12:24:00,88.5,72.3,29.14,North,0,0.0,0.0,59,0.00,,,0.00,meteohub,2013-07-16 16:24:00,
2013-07-16 12:29:00,88.7,71.4,29.14,North,0,0.0,0.0,57,0.00,,,0.00,meteohub,2013-07-16 16:29:00,
2013-07-16 12:34:00,88.7,71.1,29.14,North,0,0.0,0.0,56,0.00,,,0.00,meteohub,2013-07-16 16:34:00,
2013-07-16 12:39:00,88.9,72.1,29.14,North,0,0.0,0.0,58,0.00,,,0.00,meteohub,2013-07-16 16:39:00,
2013-07-16 12:44:00,89.1,72.3,29.14,North,0,0.0,0.0,58,0.00,,,0.00,meteohub,2013-07-16 16:44:00,
2013-07-16 12:49:00,89.6,72.3,29.14,North,0,0.0,0.0,57,0.00,,,0.00,meteohub,2013-07-16 16:49:00,
2013-07-16 12:54:00,90.0,72.1,29.14,North,0,0.0,0.0,56,0.00,,,0.00,meteohub,2013-07-16 16:54:00,
2013-07-16 12:59:00,90.3,72.0,29.14,North,0,0.0,0.0,55,0.00,,,0.00,meteohub,2013-07-16 16:59:00,
2013-07-16 13:04:00,90.7,71.8,29.14,North,0,0.0,0.0,54,0.00,,,0.00,meteohub,2013-07-16 17:04:00,
2013-07-16 13:09:00,90.5,71.1,29.14,North,0,0.0,0.0,53,0.00,,,0.00,meteohub,2013-07-16 17:09:00,
2013-07-16 13:14:00,90.7,71.2,29.14,North,0,0.0,0.0,53,0.00,,,0.00,meteohub,2013-07-16 17:14:00,
2013-07-16 13:19:00,90.7,71.8,29.14,North,0,0.0,0.0,54,0.00,,,0.00,meteohub,2013-07-16 17:19:00,
2013-07-16 13:24:00,90.9,72.0,29.14,North,0,0.0,0.0,54,0.00,,,0.00,meteohub,2013-07-16 17:24:00,
2013-07-16 13:29:00,91.2,72.3,29.14,North,0,0.0,0.0,54,0.00,,,0.00,meteohub,2013-07-16 17:29:00,
2013-07-16 13:34:00,91.2,71.6,29.14,North,0,0.0,0.0,53,0.00,,,0.00,meteohub,2013-07-16 17:34:00,
2013-07-16 13:39:00,90.9,72.0,29.14,North,0,0.0,0.0,54,0.00,,,0.00,meteohub,2013-07-16 17:39:00,
2013-07-16 13:44:00,91.0,72.1,29.14,North,0,0.0,0.0,54,0.00,,,0.00,meteohub,2013-07-16 17:44:00,
2013-07-16 13:49:00,91.2,72.3,29.14,North,0,0.0,0.0,54,0.00,,,0.00,meteohub,2013-07-16 17:49:00,
2013-07-16 13:54:00,91.2,72.3,29.14,North,0,0.0,0.0,54,0.00,,,0.00,meteohub,2013-07-16 17:54:00,
2013-07-16 13:59:00,91.6,72.0,29.14,North,0,0.0,0.0,53,0.00,,,0.00,meteohub,2013-07-16 17:59:00,
2013-07-16 14:04:00,91.4,72.3,29.14,North,0,0.0,0.0,54,0.00,,,0.00,meteohub,2013-07-16 18:04:00,
2013-07-16 14:09:00,91.4,72.3,29.14,North,0,0.0,0.0,54,0.00,,,0.00,meteohub,2013-07-16 18:09:00,
2013-07-16 14:14:00,91.8,72.1,29.14,North,0,0.0,0.0,53,0.00,,,0.00,meteohub,2013-07-16 18:14:00,
2013-07-16 14:19:00,91.6,72.5,29.14,North,0,0.0,0.0,54,0.00,,,0.00,meteohub,2013-07-16 18:19:00,
2013-07-16 14:24:00,91.6,72.5,29.14,North,0,0.0,0.0,54,0.00,,,0.00,meteohub,2013-07-16 18:24:00,
2013-07-16 14:29:00,91.8,72.7,29.14,North,0,0.0,0.0,54,0.00,,,0.00,meteohub,2013-07-16 18:29:00,
2013-07-16 14:34:00,91.8,72.1,29.14,North,0,0.0,0.0,53,0.00,,,0.00,meteohub,2013-07-16 18:34:00,
2013-07-16 14:39:00,91.8,72.1,29.14,North,0,0.0,0.0,53,0.00,,,0.00,meteohub,2013-07-16 18:39:00,
2013-07-16 14:44:00,91.9,72.3,29.14,North,0,0.0,0.0,53,0.00,,,0.00,meteohub,2013-07-16 18:44:00,
2013-07-16 14:49:00,91.9,72.3,29.14,North,0,0.0,0.0,53,0.00,,,0.00,meteohub,2013-07-16 18:49:00,
2013-07-16 14:54:00,92.3,72.7,29.14,North,0,0.0,0.0,53,0.00,,,0.00,meteohub,2013-07-16 18:54:00,
2013-07-16 14:59:00,92.5,72.9,29.14,North,0,0.0,0.0,53,0.00,,,0.00,meteohub,2013-07-16 18:59:00,
2013-07-16 15:04:00,92.7,73.0,29.14,North,0,0.0,0.0,53,0.00,,,0.00,meteohub,2013-07-16 19:04:00,
2013-07-16 15:09:00,92.8,73.2,29.14,North,0,0.0,0.0,53,0.00,,,0.00,meteohub,2013-07-16 19:09:00,
2013-07-16 15:14:00,92.8,73.2,29.14,North,0,0.0,0.0,53,0.00,,,0.00,meteohub,2013-07-16 19:14:00,
2013-07-16 15:19:00,92.7,73.0,29.14,North,0,0.0,0.0,53,0.00,,,0.00,meteohub,2013-07-16 19:19:00,
2013-07-16 15:25:00,92.7,73.0,29.14,North,0,0.0,0.0,53,0.00,,,0.00,meteohub,2013-07-16 19:25:00,
2013-07-16 15:30:00,92.8,73.8,29.14,North,0,0.0,0.0,54,0.00,,,0.00,meteohub,2013-07-16 19:30:00,
2013-07-16 15:35:00,92.7,73.6,29.14,North,0,0.0,0.0,54,0.00,,,0.00,meteohub,2013-07-16 19:35:00,
2013-07-16 15:40:00,92.7,73.6,29.14,North,0,0.0,0.0,54,0.00,,,0.00,meteohub,2013-07-16 19:40:00,
2013-07-16 15:45:00,92.8,73.8,29.14,North,0,0.0,0.0,54,0.00,,,0.00,meteohub,2013-07-16 19:45:00,
2013-07-16 15:50:00,93.2,74.1,29.14,North,0,0.0,0.0,54,0.00,,,0.00,meteohub,2013-07-16 19:50:00,
2013-07-16 15:55:00,93.4,74.3,29.14,North,0,0.0,0.0,54,0.00,,,0.00,meteohub,2013-07-16 19:55:00,
2013-07-16 16:00:00,93.4,73.8,29.14,North,0,0.0,0.0,53,0.00,,,0.00,meteohub,2013-07-16 20:00:00,
2013-07-16 16:05:00,93.9,74.1,29.14,North,0,0.0,0.0,53,0.00,,,0.00,meteohub,2013-07-16 20:05:00,
2013-07-16 16:10:00,94.1,74.3,29.14,North,0,0.0,0.0,53,0.00,,,0.00,meteohub,2013-07-16 20:10:00,
2013-07-16 16:15:00,93.9,73.6,29.14,North,0,0.0,0.0,52,0.00,,,0.00,meteohub,2013-07-16 20:15:00,
2013-07-16 16:20:00,93.4,73.0,29.14,North,0,0.0,0.0,52,0.00,,,0.00,meteohub,2013-07-16 20:20:00,
2013-07-16 16:25:00,93.2,73.6,29.14,North,0,0.0,0.0,53,0.00,,,0.00,meteohub,2013-07-16 20:25:00,
2013-07-16 16:30:00,93.6,74.5,29.14,North,0,0.0,0.0,54,0.00,,,0.00,meteohub,2013-07-16 20:30:00,
2013-07-16 16:35:00,93.7,74.7,29.14,North,0,0.0,0.0,54,0.00,,,0.00,meteohub,2013-07-16 20:35:00,
2013-07-16 16:40:00,93.4,73.8,29.14,North,0,0.0,0.0,53,0.00,,,0.00,meteohub,2013-07-16 20:40:00,
2013-07-16 16:45:00,93.4,74.3,29.14,North,0,0.0,0.0,54,0.00,,,0.00,meteohub,2013-07-16 20:45:00,
2013-07-16 16:50:00,93.7,74.7,29.14,North,0,0.0,0.0,54,0.00,,,0.00,meteohub,2013-07-16 20:50:00,
2013-07-16 16:55:00,93.4,73.8,29.14,North,0,0.0,0.0,53,0.00,,,0.00,meteohub,2013-07-16 20:55:00,
2013-07-16 17:00:00,93.7,74.7,29.14,North,0,0.0,0.0,54,0.00,,,0.00,meteohub,2013-07-16 21:00:00,
2013-07-16 17:05:00,93.7,73.9,29.14,North,0,0.0,0.0,53,0.00,,,0.00,meteohub,2013-07-16 21:05:00,
2013-07-16 17:10:00,93.4,74.8,29.14,North,0,0.0,0.0,55,0.00,,,0.00,meteohub,2013-07-16 21:10:00,
2013-07-16 17:15:00,93.2,74.7,29.14,North,0,0.0,0.0,55,0.00,,,0.00,meteohub,2013-07-16 21:15:00,
2013-07-16 17:20:00,92.8,74.3,29.14,North,0,0.0,0.0,55,0.00,,,0.00,meteohub,2013-07-16 21:20:00,
2013-07-16 17:25:00,93.0,75.0,29.14,North,0,0.0,0.0,56,0.00,,,0.00,meteohub,2013-07-16 21:25:00,
2013-07-16 17:30:00,93.0,74.5,29.14,North,0,0.0,0.0,55,0.00,,,0.00,meteohub,2013-07-16 21:30:00,
2013-07-16 17:35:00,93.2,74.1,29.14,North,0,0.0,0.0,54,0.00,,,0.00,meteohub,2013-07-16 21:35:00,
2013-07-16 17:40:00,93.4,74.3,29.14,North,0,0.0,0.0,54,0.00,,,0.00,meteohub,2013-07-16 21:40:00,
2013-07-16 17:45:00,92.8,73.8,29.14,North,0,0.0,0.0,54,0.00,,,0.00,meteohub,2013-07-16 21:45:00,
2013-07-16 17:50:00,92.7,74.1,29.14,North,0,0.0,0.0,55,0.00,,,0.00,meteohub,2013-07-16 21:50:00,
2013-07-16 17:55:00,92.7,74.7,29.14,North,0,0.0,0.0,56,0.00,,,0.00,meteohub,2013-07-16 21:55:00,
2013-07-16 18:00:00,92.7,75.2,29.14,North,0,0.0,0.0,57,0.00,,,0.00,meteohub,2013-07-16 22:00:00,
2013-07-16 18:05:00,92.5,74.5,29.14,North,0,0.0,0.0,56,0.00,,,0.00,meteohub,2013-07-16 22:05:00,
2013-07-16 18:10:00,92.5,74.5,29.14,North,0,0.0,0.0,56,0.00,,,0.00,meteohub,2013-07-16 22:10:00,
2013-07-16 18:16:00,92.1,74.7,29.14,North,0,0.0,0.0,57,0.00,,,0.00,meteohub,2013-07-16 22:16:00,
2013-07-16 18:21:00,91.4,74.5,29.14,North,0,0.0,0.0,58,0.00,,,0.00,meteohub,2013-07-16 22:21:00,
2013-07-16 18:26:00,90.5,74.1,29.14,North,0,0.0,0.0,59,0.00,,,0.00,meteohub,2013-07-16 22:26:00,
2013-07-16 18:31:00,89.8,74.5,29.14,North,0,0.0,0.0,61,0.00,,,0.00,meteohub,2013-07-16 22:31:00,
2013-07-16 18:36:00,89.2,74.5,29.14,North,0,0.0,0.0,62,0.00,,,0.00,meteohub,2013-07-16 22:36:00,
2013-07-16 18:41:00,88.7,74.5,29.14,North,0,0.0,0.0,63,0.00,,,0.00,meteohub,2013-07-16 22:41:00,
2013-07-16 18:46:00,88.2,73.9,29.14,North,0,0.0,0.0,63,0.00,,,0.00,meteohub,2013-07-16 22:46:00,
2013-07-16 18:51:00,87.8,74.1,29.14,North,0,0.0,0.0,64,0.00,,,0.00,meteohub,2013-07-16 22:51:00,
2013-07-16 18:56:00,87.4,73.8,29.14,North,0,0.0,0.0,64,0.00,,,0.00,meteohub,2013-07-16 22:56:00,
2013-07-16 19:01:00,87.1,73.9,29.14,North,0,0.0,0.0,65,0.00,,,0.00,meteohub,2013-07-16 23:01:00,
2013-07-16 19:06:00,86.5,73.4,29.14,North,0,0.0,0.0,65,0.00,,,0.00,meteohub,2013-07-16 23:06:00,
2013-07-16 19:11:00,86.4,74.1,29.14,North,0,0.0,0.0,67,0.00,,,0.00,meteohub,2013-07-16 23:11:00,
2013-07-16 19:16:00,86.0,73.2,29.14,North,0,0.0,0.0,66,0.00,,,0.00,meteohub,2013-07-16 23:16:00,
2013-07-16 19:21:00,85.8,73.6,29.14,North,0,0.0,0.0,67,0.00,,,0.00,meteohub,2013-07-16 23:21:00,
2013-07-16 19:26:00,85.6,73.4,29.14,North,0,0.0,0.0,67,0.00,,,0.00,meteohub,2013-07-16 23:26:00,
2013-07-16 19:31:00,85.5,73.8,29.14,North,0,0.0,0.0,68,0.00,,,0.00,meteohub,2013-07-16 23:31:00,
2013-07-16 19:36:00,85.1,73.4,29.14,North,0,0.0,0.0,68,0.00,,,0.00,meteohub,2013-07-16 23:36:00,
2013-07-16 19:41:00,85.1,73.4,29.14,North,0,0.0,0.0,68,0.00,,,0.00,meteohub,2013-07-16 23:41:00,
2013-07-16 19:46:00,84.9,73.2,29.14,North,0,0.0,0.0,68,0.00,,,0.00,meteohub,2013-07-16 23:46:00,
2013-07-16 19:51:00,84.7,73.4,29.14,North,0,0.0,0.0,69,0.00,,,0.00,meteohub,2013-07-16 23:51:00,
2013-07-16 19:56:00,84.4,73.0,29.14,North,0,0.0,0.0,69,0.00,,,0.00,meteohub,2013-07-16 23:56:00,
2013-07-16 20:01:00,84.4,73.0,29.14,North,0,0.0,0.0,69,0.00,,,0.00,meteohub,2013-07-17 00:01:00,
2013-07-16 20:06:00,84.0,73.2,29.14,North,0,0.0,0.0,70,0.00,,,0.00,meteohub,2013-07-17 00:06:00,
2013-07-16 20:11:00,84.0,73.2,29.14,North,0,0.0,0.0,70,0.00,,,0.00,meteohub,2013-07-17 00:11:00,
2013-07-16 20:16:00,83.8,73.0,29.14,North,0,0.0,0.0,70,0.00,,,0.00,meteohub,2013-07-17 00:16:00,
2013-07-16 20:21:00,83.8,73.4,29.14,North,0,0.0,0.0,71,0.00,,,0.00,meteohub,2013-07-17 00:21:00,
2013-07-16 20:26:00,83.7,73.2,29.14,North,0,0.0,0.0,71,0.00,,,0.00,meteohub,2013-07-17 00:26:00,
2013-07-16 20:31:00,83.3,72.9,29.14,North,0,0.0,0.0,71,0.00,,,0.00,meteohub,2013-07-17 00:31:00,
2013-07-16 20:36:00,83.1,72.7,29.14,North,0,0.0,0.0,71,0.00,,,0.00,meteohub,2013-07-17 00:36:00,
2013-07-16 20:41:00,83.1,72.7,29.14,North,0,0.0,0.0,71,0.00,,,0.00,meteohub,2013-07-17 00:41:00,
2013-07-16 20:46:00,82.9,72.5,29.14,North,0,0.0,0.0,71,0.00,,,0.00,meteohub,2013-07-17 00:46:00,
2013-07-16 20:51:00,82.9,72.5,29.14,North,0,0.0,0.0,71,0.00,,,0.00,meteohub,2013-07-17 00:51:00,
2013-07-16 20:56:00,82.8,72.3,29.14,North,0,0.0,0.0,71,0.00,,,0.00,meteohub,2013-07-17 00:56:00,
2013-07-16 21:01:00,82.6,72.1,29.14,North,0,0.0,0.0,71,0.00,,,0.00,meteohub,2013-07-17 01:01:00,
2013-07-16 21:06:00,82.6,72.1,29.14,North,0,0.0,0.0,71,0.00,,,0.00,meteohub,2013-07-17 01:06:00,
2013-07-16 21:11:00,82.2,72.0,29.14,North,0,0.0,0.0,71,0.00,,,0.00,meteohub,2013-07-17 01:11:00,
2013-07-16 21:17:00,82.0,71.8,29.14,North,0,0.0,0.0,71,0.00,,,0.00,meteohub,2013-07-17 01:17:00,
2013-07-16 21:22:00,81.7,71.8,29.14,North,0,0.0,0.0,72,0.00,,,0.00,meteohub,2013-07-17 01:22:00,
2013-07-16 21:27:00,81.5,71.6,29.14,North,0,0.0,0.0,72,0.00,,,0.00,meteohub,2013-07-17 01:27:00,
2013-07-16 21:32:00,81.1,71.2,29.14,North,0,0.0,0.0,72,0.00,,,0.00,meteohub,2013-07-17 01:32:00,
2013-07-16 21:37:00,80.8,70.5,29.14,North,0,0.0,0.0,71,0.00,,,0.00,meteohub,2013-07-17 01:37:00,
2013-07-16 21:42:00,80.6,70.3,29.14,North,0,0.0,0.0,71,0.00,,,0.00,meteohub,2013-07-17 01:42:00,
2013-07-16 21:47:00,80.4,70.2,29.14,North,0,0.0,0.0,71,0.00,,,0.00,meteohub,2013-07-17 01:47:00,
2013-07-16 21:52:00,80.2,70.0,29.14,North,0,0.0,0.0,71,0.00,,,0.00,meteohub,2013-07-17 01:52:00,
2013-07-16 21:57:00,80.1,69.8,29.14,North,0,0.0,0.0,71,0.00,,,0.00,meteohub,2013-07-17 01:57:00,
2013-07-16 22:02:00,80.1,69.8,29.14,North,0,0.0,0.0,71,0.00,,,0.00,meteohub,2013-07-17 02:02:00,
2013-07-16 22:07:00,79.7,69.4,29.14,North,0,0.0,0.0,71,0.00,,,0.00,meteohub,2013-07-17 02:07:00,
2013-07-16 22:12:00,79.5,69.3,29.14,North,0,0.0,0.0,71,0.00,,,0.00,meteohub,2013-07-17 02:12:00,
2013-07-16 22:17:00,79.3,69.1,29.14,North,0,0.0,0.0,71,0.00,,,0.00,meteohub,2013-07-17 02:17:00,
2013-07-16 22:22:00,79.0,68.7,29.14,North,0,0.0,0.0,71,0.00,,,0.00,meteohub,2013-07-17 02:22:00,
2013-07-16 22:27:00,78.6,68.0,29.14,North,0,0.0,0.0,70,0.00,,,0.00,meteohub,2013-07-17 02:27:00,
2013-07-16 22:32:00,78.6,68.0,29.14,North,0,0.0,0.0,70,0.00,,,0.00,meteohub,2013-07-17 02:32:00,
2013-07-16 22:37:00,78.3,67.3,29.14,North,0,0.0,0.0,69,0.00,,,0.00,meteohub,2013-07-17 02:37:00,
2013-07-16 22:42:00,78.1,67.1,29.14,North,0,0.0,0.0,69,0.00,,,0.00,meteohub,2013-07-17 02:42:00,
2013-07-16 22:47:00,77.9,66.0,29.14,North,0,0.0,0.0,67,0.00,,,0.00,meteohub,2013-07-17 02:47:00,
2013-07-16 22:52:00,77.7,65.5,29.14,North,0,0.0,0.0,66,0.00,,,0.00,meteohub,2013-07-17 02:52:00,
2013-07-16 22:57:00,77.7,64.9,29.14,North,0,0.0,0.0,65,0.00,,,0.00,meteohub,2013-07-17 02:57:00,
2013-07-16 23:02:00,77.9,65.1,29.14,North,0,0.0,0.0,65,0.00,,,0.00,meteohub,2013-07-17 03:02:00,
2013-07-16 23:07:00,78.1,65.8,29.14,North,0,0.0,0.0,66,0.00,,,0.00,meteohub,2013-07-17 03:07:00,
2013-07-16 23:12:00,78.3,66.0,29.14,North,0,0.0,0.0,66,0.00,,,0.00,meteohub,2013-07-17 03:12:00,
2013-07-16 23:17:00,78.3,66.4,29.14,North,0,0.0,0.0,67,0.00,,,0.00,meteohub,2013-07-17 03:17:00,
2013-07-16 23:22:00,78.3,66.7,29.14,North,0,0.0,0.0,68,0.00,,,0.00,meteohub,2013-07-17 03:22:00,
2013-07-16 23:27:00,78.4,66.9,29.14,North,0,0.0,0.0,68,0.00,,,0.00,meteohub,2013-07-17 03:27:00,
2013-07-16 23:32:00,78.4,67.5,29.14,North,0,0.0,0.0,69,0.00,,,0.00,meteohub,2013-07-17 03:32:00,
2013-07-16 23:37:00,78.4,67.5,29.14,North,0,0.0,0.0,69,0.00,,,0.00,meteohub,2013-07-17 03:37:00,
2013-07-16 23:42:00,78.4,67.8,29.14,North,0,0.0,0.0,70,0.00,,,0.00,meteohub,2013-07-17 03:42:00,
2013-07-16 23:47:00,78.3,67.6,29.14,North,0,0.0,0.0,70,0.00,,,0.00,meteohub,2013-07-17 03:47:00,
2013-07-16 23:52:00,78.3,67.6,29.14,North,0,0.0,0.0,70,0.00,,,0.00,meteohub,2013-07-17 03:52:00,
2013-07-16 23:57:00,78.3,67.6,29.14,North,0,0.0,0.0,70,0.00,,,0.00,meteohub,2013-07-17 03:57:00,